Location: Bouchavesnes-Bergen
(49.9859°N, 2.9203°E)
Time: 10:48:09
(UTC+00:00)

Cosmos 2221 - Pass Details

Date: 09 March 2021
Orbit: 591 x 616 km, 82.5° (Epoch: 12 April)

Event Time Altitude Azimuth Distance (km) Brightness Sun altitude
Exits shadow 04:30:21 25° 301° (WNW) 1,254 3.7 -17.5°
Drops below altitude 10° 04:33:33 10° 348° (NNW) 1,969 5.2 -17.0°
Sets 04:36:06 0° 1° (N) 2,873 6.2 -16.6°
